�N����,����,�~����,�C��,���x,�C��,����,���ϕ���,�ő�u�ԕ���,�ő厞����,���˗�,�I�_���x,�n�����x,�ő啗���N��,DTYPE
"23/07/07","00:10",0.0,23.7,89.7,1001.0,332.1,1.0,1.6,336.1,0.00,21.9,24.4,"00:06:40",1
"23/07/07","00:20",0.0,23.6,89.9,1001.0,323.5,1.0,1.7,320.5,0.00,21.9,24.4,"00:19:12",1
"23/07/07","00:30",0.0,23.3,90.1,1001.0,294.5,0.3,1.1,301.2,0.00,21.6,24.5,"00:21:44",1
"23/07/07","00:40",0.0,23.0,90.4,1001.5,308.7,0.5,1.1,318.5,0.00,21.4,24.1,"00:37:04",1
"23/07/07","00:50",0.0,22.9,90.7,1001.5,326.0,1.2,1.3,324.7,0.00,21.3,24.2,"00:40:16",1
"23/07/07","01:00",0.0,22.9,91.0,1001.7,328.4,1.3,1.9,343.3,0.00,21.4,24.1,"00:54:56",1
"23/07/07","01:10",0.0,22.6,91.3,1001.5,296.3,0.6,1.1,313.3,0.00,21.1,24.1,"01:09:32",1
"23/07/07","01:20",0.0,22.5,91.6,1001.7,318.3,1.1,1.6,331.9,0.00,21.1,24.2,"01:11:52",1
"23/07/07","01:30",0.0,22.5,91.8,1001.9,325.4,1.1,1.4,339.3,0.00,21.1,24.1,"01:20:56",1
"23/07/07","01:40",0.0,22.4,92.2,1001.5,292.8,1.0,1.4,292.6,0.00,21.1,24.1,"01:39:44",1
"23/07/07","01:50",0.0,22.5,92.3,1001.5,289.9,1.1,1.9,317.2,0.00,21.2,23.9,"01:48:48",1
"23/07/07","02:00",0.0,22.5,92.5,1001.5,293.9,1.1,1.7,330.0,0.00,21.3,24.0,"01:58:32",1
"23/07/07","02:10",0.0,22.5,92.5,1001.7,292.3,1.2,1.9,317.4,0.00,21.3,23.9,"02:04:40",1
"23/07/07","02:20",0.0,22.5,92.5,1001.5,316.2,1.2,1.9,308.2,0.00,21.3,23.7,"02:15:52",1
"23/07/07","02:30",0.0,22.4,92.4,1001.7,322.3,1.1,1.7,320.6,0.00,21.1,23.7,"02:26:24",1
"23/07/07","02:40",0.0,22.2,92.5,1001.5,327.7,1.1,1.4,335.3,0.00,21.0,23.8,"02:30:08",1
"23/07/07","02:50",0.0,22.1,92.7,1001.7,326.9,1.0,1.4,338.3,0.00,20.9,23.9,"02:46:00",1
"23/07/07","03:00",0.0,22.1,92.8,1001.7,318.0,1.0,1.6,330.1,0.00,20.9,23.7,"02:57:52",1
"23/07/07","03:10",0.0,21.9,92.8,1001.9,312.3,0.6,1.1,314.0,0.00,20.7,23.7,"03:08:24",1
"23/07/07","03:20",0.0,21.8,93.0,1001.5,316.4,1.1,1.7,325.2,0.00,20.7,23.8,"03:18:16",1
"23/07/07","03:30",0.0,21.7,93.1,1001.7,322.4,1.0,1.7,342.1,0.00,20.6,23.7,"03:20:24",1
"23/07/07","03:40",0.0,21.6,93.3,1001.7,324.7,1.3,1.9,321.2,0.00,20.5,23.6,"03:34:40",1
"23/07/07","03:50",0.0,21.3,93.3,1001.7,295.2,0.6,1.3,317.5,0.00,20.2,23.7,"03:41:20",1
"23/07/07","04:00",0.0,21.2,93.5,1001.9,304.7,1.0,1.6,333.5,0.00,20.1,23.7,"03:59:36",1
"23/07/07","04:10",0.0,21.5,93.6,1001.9,338.7,1.5,1.9,341.4,0.00,20.5,23.3,"04:00:40",1
"23/07/07","04:20",0.0,21.4,93.7,1001.9,301.3,1.1,1.7,318.4,0.00,20.4,23.5,"04:10:24",1
"23/07/07","04:30",0.0,21.2,93.9,1001.9,316.9,1.2,1.9,322.8,0.00,20.2,23.6,"04:29:52",1
"23/07/07","04:40",0.0,21.2,94.0,1002.2,314.9,1.2,1.6,318.0,0.00,20.2,23.3,"04:30:08",1
"23/07/07","04:50",0.0,21.2,94.1,1002.2,316.2,1.6,2.5,332.1,0.00,20.3,23.4,"04:45:12",1
"23/07/07","05:00",0.0,21.2,94.2,1002.2,302.5,1.2,2.6,320.0,0.00,20.3,23.5,"04:57:28",1
"23/07/07","05:10",0.0,21.2,94.2,1002.4,308.7,1.5,2.2,333.3,0.00,20.3,23.4,"05:09:20",1
"23/07/07","05:20",0.0,21.2,94.0,1002.4,329.9,1.8,2.9,333.6,0.00,20.2,23.1,"05:14:32",1
"23/07/07","05:30",0.0,21.4,94.0,1002.2,344.3,1.0,2.5,351.3,0.00,20.4,23.3,"05:21:20",1
"23/07/07","05:40",0.0,21.2,93.9,1002.2,306.2,0.7,1.1,287.7,0.00,20.2,23.3,"05:32:32",1
"23/07/07","05:50",0.0,20.9,94.0,1002.2,307.1,1.0,1.7,338.1,0.00,19.9,23.3,"05:49:36",1
"23/07/07","06:00",0.0,20.9,94.0,1002.2,319.2,1.0,1.4,334.4,0.00,19.9,23.2,"05:51:44",1
"23/07/07","06:10",0.0,20.8,94.1,1002.4,321.2,0.7,1.1,325.1,0.00,19.9,23.2,"06:05:04",1
"23/07/07","06:20",0.0,20.9,94.1,1002.2,324.6,1.2,1.6,319.3,0.00,20.0,22.9,"06:12:40",1
"23/07/07","06:30",0.0,20.9,94.2,1002.6,321.7,0.8,1.2,321.5,0.00,20.0,23.1,"06:26:16",1
"23/07/07","06:40",0.0,21.0,94.2,1002.6,303.1,0.8,1.0,324.4,0.01,20.1,23.1,"06:31:36",1
"23/07/07","06:50",0.0,21.3,94.2,1002.4,312.0,1.0,1.4,311.1,0.02,20.4,23.2,"06:42:24",1
"23/07/07","07:00",0.0,21.9,94.2,1002.2,326.8,1.0,1.3,320.6,0.03,21.0,23.0,"06:55:20",1
"23/07/07","07:10",0.0,22.7,94.1,1002.2,283.9,0.5,0.9,325.7,0.05,21.7,22.9,"07:09:36",1
"23/07/07","07:20",0.0,23.2,93.7,1002.2,337.8,0.7,1.4,335.6,0.06,22.2,22.8,"07:13:20",1
"23/07/07","07:30",0.0,24.5,93.3,1002.4,324.0,0.3,1.4,319.2,0.09,23.4,22.9,"07:22:48",1
"23/07/07","07:40",0.0,25.5,92.0,1002.2,93.3,0.0,0.3,343.1,0.11,24.1,22.8,"07:30:08",1
"23/07/07","07:50",0.0,25.3,91.2,1002.2,148.6,0.3,0.9,190.3,0.13,23.8,22.9,"07:45:04",1
"23/07/07","08:00",0.0,25.8,89.1,1002.4,42.8,0.3,1.1,15.6,0.15,23.9,22.9,"07:58:24",1
"23/07/07","08:10",0.0,26.5,85.3,1001.9,35.0,0.8,1.9,9.5,0.17,23.9,22.9,"08:00:02",1
"23/07/07","08:20",0.0,27.0,80.6,1001.5,9.6,0.8,1.6,11.0,0.19,23.4,22.9,"08:10:08",1
"23/07/07","08:30",0.0,27.3,77.3,1000.8,34.8,0.6,1.2,358.1,0.22,23.0,22.7,"08:20:56",1
"23/07/07","08:40",0.0,28.1,74.2,1001.5,43.3,0.5,1.3,99.6,0.24,23.1,23.0,"08:35:36",1
"23/07/07","08:50",0.0,28.9,71.2,1002.4,97.8,0.3,1.1,4.3,0.26,23.2,22.9,"08:40:02",1
"23/07/07","09:00",0.0,29.1,68.3,1002.4,16.2,0.8,1.9,351.5,0.27,22.7,23.0,"08:58:08",1
"23/07/07","09:10",0.0,28.7,68.3,1002.4,340.4,0.7,1.9,341.6,0.27,22.3,22.9,"09:00:08",1
"23/07/07","09:20",0.0,29.1,68.2,1002.6,169.5,0.6,1.6,235.7,0.30,22.7,23.1,"09:12:24",1
"23/07/07","09:30",0.0,29.5,66.9,1002.9,272.1,0.6,1.3,72.1,0.29,22.7,22.9,"09:28:32",1
"23/07/07","09:40",0.0,30.1,64.4,1003.4,68.7,0.6,1.4,25.5,0.29,22.7,23.0,"09:33:04",1
"23/07/07","09:50",0.0,30.3,62.4,1003.1,12.5,0.7,1.6,7.7,0.29,22.4,23.0,"09:44:48",1
"23/07/07","10:00",0.0,31.1,63.0,1003.4,307.5,0.6,1.6,356.1,0.39,23.3,23.0,"09:51:52",1
"23/07/07","10:10",0.0,31.7,60.6,1003.6,71.2,0.5,1.9,13.6,0.39,23.2,23.2,"10:08:56",1
"23/07/07","10:20",0.0,31.8,58.9,1003.8,137.3,0.8,1.9,84.1,0.40,22.8,23.2,"10:11:44",1
"23/07/07","10:30",0.0,31.7,58.6,1004.3,169.7,1.1,3.5,188.2,0.40,22.6,23.2,"10:25:04",1
"23/07/07","10:40",0.0,31.6,57.9,1003.8,170.2,0.8,2.4,229.0,0.33,22.3,23.3,"10:39:36",1
"23/07/07","10:50",0.0,31.5,59.0,1003.8,169.0,1.2,2.9,181.4,0.36,22.6,23.3,"10:43:52",1
"23/07/07","11:00",0.0,31.8,55.7,1004.1,136.7,1.0,2.2,164.0,0.36,21.9,23.4,"10:53:04",1
"23/07/07","11:10",0.0,32.4,54.7,1003.8,51.7,0.8,1.8,17.7,0.38,22.1,23.6,"11:04:00",1
"23/07/07","11:20",0.0,32.0,57.1,1003.6,159.0,1.3,3.3,220.3,0.31,22.5,23.8,"11:14:00",1
"23/07/07","11:30",0.0,32.1,57.6,1003.4,171.6,1.6,3.3,209.6,0.43,22.7,23.7,"11:26:40",1
"23/07/07","11:40",0.0,32.9,56.8,1003.1,144.9,1.0,3.3,131.1,0.51,23.2,23.5,"11:36:48",1
"23/07/07","11:50",0.0,33.4,56.2,1003.4,144.2,1.2,2.7,128.9,0.50,23.5,23.7,"11:45:04",1
"23/07/07","12:00",0.0,33.4,55.4,1003.1,135.9,1.5,3.1,121.4,0.55,23.3,23.9,"11:56:40",1
"23/07/07","12:10",0.0,33.5,56.1,1003.1,137.5,1.2,2.4,153.2,0.47,23.6,24.0,"12:00:16",1
"23/07/07","12:20",0.0,33.3,54.3,1003.1,131.5,1.2,3.1,74.6,0.40,22.9,24.2,"12:19:28",1
"23/07/07","12:30",0.0,33.5,54.4,1002.9,123.6,1.1,2.1,150.3,0.40,23.1,24.1,"12:20:02",1
"23/07/07","12:40",0.0,33.4,55.6,1002.4,146.4,1.5,2.8,139.8,0.42,23.3,24.1,"12:33:28",1
"23/07/07","12:50",0.0,33.2,51.5,1002.2,157.1,2.3,5.9,198.4,0.48,21.9,24.3,"12:49:12",1
"23/07/07","13:00",0.0,33.6,54.5,1001.7,122.6,1.1,2.5,209.3,0.33,23.2,24.3,"12:50:16",1
"23/07/07","13:10",0.0,34.1,52.4,1002.2,130.1,1.5,3.7,120.8,0.50,23.0,24.2,"13:05:04",1
"23/07/07","13:20",0.0,35.2,51.3,1002.4,100.4,1.2,3.4,122.4,0.58,23.7,24.6,"13:13:12",1
"23/07/07","13:30",0.0,35.3,47.3,1002.4,104.4,1.2,4.0,110.3,0.50,22.4,24.7,"13:29:28",1
"23/07/07","13:40",0.0,35.1,47.9,1002.4,140.4,1.8,4.4,133.4,0.54,22.4,24.7,"13:31:52",1
"23/07/07","13:50",0.0,35.7,47.1,1002.4,112.9,1.1,2.6,162.3,0.51,22.7,24.6,"13:43:28",1
"23/07/07","14:00",0.0,35.4,46.5,1002.4,136.0,1.5,3.7,123.4,0.47,22.2,24.7,"13:56:40",1
"23/07/07","14:10",0.0,34.9,47.3,1002.2,177.3,1.7,3.6,190.6,0.37,22.1,24.7,"14:05:28",1
"23/07/07","14:20",0.0,35.4,47.4,1002.2,146.3,1.1,2.6,148.8,0.44,22.5,25.0,"14:15:44",1
"23/07/07","14:30",0.0,35.9,46.9,1002.6,154.1,1.1,3.2,136.9,0.49,22.8,25.1,"14:29:36",1
"23/07/07","14:40",0.0,35.6,46.5,1002.4,191.4,2.0,4.4,229.0,0.51,22.4,25.1,"14:36:16",1
"23/07/07","14:50",0.0,35.7,43.7,1002.4,86.4,1.5,4.0,341.0,0.49,21.5,25.2,"14:49:04",1
"23/07/07","15:00",0.0,35.9,43.4,1002.4,251.4,1.3,3.5,230.4,0.48,21.6,25.1,"14:54:56",1
"23/07/07","15:10",0.0,36.2,44.0,1002.6,201.2,2.2,3.9,232.3,0.48,22.0,25.3,"15:09:52",1
"23/07/07","15:20",0.0,35.9,45.2,1002.4,208.6,2.1,4.8,221.9,0.39,22.2,25.3,"15:18:40",1
"23/07/07","15:30",0.0,35.7,45.5,1002.2,211.4,2.3,5.7,235.6,0.32,22.1,25.3,"15:20:48",1
"23/07/07","15:40",0.0,35.2,44.7,1002.2,228.4,1.7,4.2,230.7,0.23,21.4,25.6,"15:33:44",1
"23/07/07","15:50",0.0,34.6,47.2,1001.9,242.8,1.2,4.1,192.1,0.12,21.7,25.2,"15:43:52",1
"23/07/07","16:00",0.0,34.1,50.0,1001.7,237.3,1.7,4.2,235.8,0.13,22.2,25.5,"15:52:56",1
"23/07/07","16:10",0.0,33.4,50.0,1001.5,244.4,2.1,5.6,217.8,0.15,21.6,25.5,"16:03:44",1
"23/07/07","16:20",0.0,33.5,51.9,1001.5,252.6,1.7,4.1,241.2,0.21,22.3,25.6,"16:19:12",1
"23/07/07","16:30",0.0,33.3,55.2,1001.2,270.4,1.2,3.7,249.5,0.16,23.1,25.6,"16:21:36",1
"23/07/07","16:40",0.0,32.6,57.4,1001.2,256.0,1.6,4.4,229.7,0.09,23.1,25.5,"16:38:56",1
"23/07/07","16:50",0.0,32.2,60.2,1001.2,232.2,1.7,4.9,232.6,0.07,23.5,25.6,"16:41:52",1
"23/07/07","17:00",0.0,31.9,61.8,1000.8,276.6,1.3,3.7,227.5,0.07,23.7,25.4,"16:56:08",1
"23/07/07","17:10",0.0,31.6,63.6,1000.8,286.2,1.7,3.7,239.8,0.07,23.9,25.7,"17:00:32",1
"23/07/07","17:20",0.0,31.3,65.4,1000.5,329.4,1.7,2.8,351.4,0.06,24.1,25.6,"17:15:04",1
"23/07/07","17:30",0.0,31.0,66.9,1000.5,319.8,1.6,3.9,339.9,0.05,24.2,25.3,"17:22:48",1
"23/07/07","17:40",0.0,30.7,68.1,1000.3,307.2,1.6,4.5,309.0,0.04,24.2,25.6,"17:36:40",1
"23/07/07","17:50",0.0,30.5,68.9,1000.5,293.0,1.6,4.0,252.4,0.04,24.2,25.2,"17:42:34",1
"23/07/07","18:00",0.0,30.0,71.3,1000.0,293.3,1.7,5.0,345.1,0.03,24.3,25.4,"17:56:08",1
"23/07/07","18:10",0.0,29.5,72.9,1000.3,280.9,1.7,3.6,247.1,0.02,24.2,25.5,"18:00:48",1
"23/07/07","18:20",0.0,29.4,73.6,1000.0,330.1,1.0,2.6,318.4,0.02,24.2,25.4,"18:14:08",1
"23/07/07","18:30",0.0,29.4,74.2,1000.3,99.6,0.8,1.9,142.2,0.01,24.4,25.4,"18:28:16",1
"23/07/07","18:40",0.0,29.3,74.4,1000.3,32.5,1.0,2.0,266.6,0.00,24.3,25.4,"18:36:08",1
"23/07/07","18:50",0.0,29.3,74.6,1000.3,320.5,1.2,2.6,348.3,0.00,24.4,25.3,"18:47:04",1
"23/07/07","19:00",0.0,29.2,74.7,1000.8,231.9,1.2,4.3,237.3,0.00,24.3,25.4,"18:58:24",1
"23/07/07","19:10",0.0,29.0,75.3,1000.8,233.7,1.5,2.9,237.9,0.00,24.2,25.5,"19:08:00",1
"23/07/07","19:20",0.2,28.9,76.8,1001.2,287.9,1.0,1.7,243.5,0.00,24.5,25.3,"19:11:28",1
"23/07/07","19:30",0.4,28.2,79.3,1001.2,350.7,0.6,1.7,359.9,0.00,24.3,25.2,"19:20:56",1
"23/07/07","19:40",0.8,27.9,81.6,1001.2,332.7,0.5,1.7,36.7,0.00,24.5,25.4,"19:38:40",1
"23/07/07","19:50",0.6,27.3,83.7,1001.2,54.4,0.5,1.3,123.6,0.00,24.3,25.1,"19:46:08",1
"23/07/07","20:00",0.0,26.9,85.0,1001.2,325.1,0.3,1.0,322.5,0.00,24.2,25.3,"19:52:40",1
"23/07/07","20:10",0.0,26.6,86.2,1001.5,322.5,0.6,1.4,359.7,0.00,24.1,25.3,"20:07:04",1
"23/07/07","20:20",0.0,26.6,87.3,1001.2,294.5,0.5,1.3,336.4,0.00,24.4,25.2,"20:18:32",1
"23/07/07","20:30",0.0,26.4,88.2,1001.2,342.1,1.0,1.9,358.9,0.00,24.3,25.1,"20:25:04",1
"23/07/07","20:40",0.0,26.2,89.0,1001.7,329.9,0.5,1.2,345.2,0.00,24.3,25.1,"20:33:12",1
"23/07/07","20:50",0.0,26.2,89.5,1001.7,281.9,0.6,1.4,307.4,0.00,24.4,25.0,"20:45:44",1
"23/07/07","21:00",0.0,26.2,90.0,1001.7,330.4,0.5,1.1,337.4,0.00,24.5,25.1,"20:58:24",1
"23/07/07","21:10",0.4,26.2,90.4,1001.9,337.4,0.6,1.2,332.0,0.00,24.5,25.2,"21:04:16",1
"23/07/07","21:20",0.0,26.1,90.8,1002.2,251.6,0.3,0.8,253.9,0.00,24.5,25.0,"21:16:24",1
"23/07/07","21:30",2.2,26.3,91.2,1001.9,179.0,0.8,2.1,215.0,0.00,24.8,25.1,"21:28:56",1
"23/07/07","21:40",0.2,26.1,91.4,1002.2,290.5,0.8,2.1,343.3,0.00,24.6,25.1,"21:32:48",1
"23/07/07","21:50",0.0,26.0,91.5,1001.9,152.1,1.2,2.8,213.2,0.00,24.5,25.1,"21:41:20",1
"23/07/07","22:00",0.2,25.8,91.7,1001.9,169.0,1.2,2.8,186.5,0.00,24.4,25.1,"21:57:12",1
"23/07/07","22:10",0.0,25.9,91.5,1001.9,170.0,1.2,3.1,192.2,0.00,24.4,24.9,"22:03:52",1
"23/07/07","22:20",0.0,26.0,91.6,1001.9,196.1,0.7,1.3,206.4,0.00,24.6,25.0,"22:16:00",1
"23/07/07","22:30",0.0,26.0,91.7,1001.9,172.1,0.6,1.6,193.7,0.00,24.6,25.0,"22:23:28",1
"23/07/07","22:40",0.0,25.9,91.6,1002.2,149.7,0.3,1.7,107.7,0.00,24.5,24.7,"22:32:48",1
"23/07/07","22:50",0.0,26.0,91.9,1001.7,296.4,1.0,1.8,343.1,0.00,24.6,25.0,"22:44:24",1
"23/07/07","23:00",0.0,25.9,92.0,1001.7,319.8,0.6,1.2,320.9,0.00,24.5,24.7,"22:50:40",1
"23/07/07","23:10",0.0,25.9,92.2,1001.5,354.1,0.6,1.2,351.3,0.00,24.6,24.5,"23:03:04",1
"23/07/07","23:20",0.0,25.8,92.4,1001.5,334.9,0.8,1.4,344.1,0.00,24.5,24.7,"23:12:48",1
"23/07/07","23:30",0.0,25.7,92.5,1001.9,330.9,0.8,1.6,324.0,0.00,24.4,24.7,"23:20:40",1
"23/07/07","23:40",0.0,25.7,92.7,1001.5,341.6,0.7,1.3,353.1,0.00,24.5,24.8,"23:31:28",1
"23/07/07","23:50",0.0,25.6,92.8,1001.7,325.1,0.6,1.2,339.4,0.00,24.4,24.8,"23:43:04",1
"23/07/07","24:00",0.0,25.5,92.9,1001.9,308.5,0.8,1.2,306.0,0.00,24.3,24.8,"23:55:44",1
